"Date","subscriberCount","subscriberChange","viewCount","viewChange","videoCount","videoChange","commentCount","commentChange"
"2020-10-15 00:02:02","1500000","0","676666630","4","2678","0","0","0"
"2020-10-16 00:02:02","1500000","0","678550299","1883669","2678","0","0","0"
"2020-10-17 00:02:02","1500000","0","679914069","1363770","2678","0","0","0"
"2020-10-18 00:02:02","1500000","0","681438400","1524331","2678","0","0","0"
"2020-10-19 00:02:02","1510000","10000","682922495","1484095","2679","1","0","0"
"2020-10-20 00:02:01","1510000","0","684258832","1336337","2678","-1","0","0"
"2020-10-21 00:02:01","1510000","0","685552541","1293709","2678","0","0","0"
"2020-10-22 00:02:01","1510000","0","686739814","1187273","2678","0","0","0"
"2020-10-23 00:02:02","1510000","0","688025426","1285612","2678","0","0","0"
"2020-10-24 00:02:02","1520000","10000","689199460","1174034","2678","0","0","0"
"2020-10-25 00:02:02","1520000","0","689898178","698718","2678","0","0","0"
"2020-10-26 00:02:01","1520000","0","691172458","1274280","2679","1","0","0"
"2020-10-27 00:02:01","1520000","0","692063488","891030","2679","0","0","0"
"2020-10-28 00:02:01","1520000","0","692914073","850585","2679","0","0","0"
"2020-10-29 00:02:01","1520000","0","693792999","878926","2679","0","0","0"
"2020-10-30 00:02:01","1520000","0","694733503","940504","2679","0","0","0"
"2020-10-31 00:02:01","1530000","10000","695550061","816558","2680","1","0","0"
"2020-11-01 00:02:01","1530000","0","696323672","773611","2680","0","0","0"
"2020-11-02 00:02:00","1530000","0","697210274","886602","2679","-1","","0"
"2020-11-03 00:02:01","1530000","0","698056295","846021","2679","0","","0"
"2020-11-04 00:02:02","1530000","0","698935763","879468","2679","0","0","0"
"2020-11-05 00:02:02","1530000","0","699568167","632404","2679","0","0","0"
"2020-11-06 00:02:02","1530000","0","700207138","638971","2679","0","","0"
"2020-11-07 00:02:02","1540000","10000","700706122","498984","2679","0","","0"
"2020-11-08 00:02:01","1540000","0","701229844","523722","2679","0","","0"
"2020-11-09 00:02:03","1540000","0","701700480","470636","2679","0","0","0"
"2020-11-10 00:02:02","1540000","0","702168524","468044","2679","0","0","0"
"2020-11-11 00:02:02","1540000","0","702657422","488898","2679","0","0","0"
"2020-11-12 00:02:02","1540000","0","703184991","527569","2679","0","","0"
"2020-11-13 00:02:02","1540000","0","703672472","487481","2679","0","","0"
"2020-11-14 00:02:01","1540000","0","704238745","566273","2679","0","","0"
"2020-11-15 00:02:01","1540000","0","704821325","582580","2679","0","","0"
"2020-11-16 00:02:02","1540000","0","705527986","706661","2679","0","","0"
"2020-11-17 00:02:01","1540000","0","705389031","-138955","2679","0","","0"
"2020-11-18 00:02:02","1550000","10000","706117718","728687","2679","0","","0"
"2020-11-19 00:02:01","1550000","0","706834866","717148","2679","0","","0"
"2020-11-20 00:02:02","1550000","0","707605908","771042","2679","0","","0"
"2020-11-21 00:02:01","1550000","0","708467244","861336","2680","1","","0"
"2020-11-22 00:02:01","1550000","0","709229470","762226","2680","0","","0"
"2020-11-23 00:02:01","1550000","0","709799280","569810","2681","1","","0"
"2020-11-24 00:02:02","1550000","0","710397666","598386","2680","-1","","0"
"2020-11-25 00:02:01","1550000","0","710976628","578962","2680","0","","0"
"2020-11-26 00:02:02","1550000","0","711560962","584334","2680","0","","0"
"2020-11-27 00:02:02","1550000","0","712131108","570146","2680","0","","0"
"2020-11-28 00:02:01","1550000","0","712667633","536525","2681","1","","0"
"2020-11-29 00:02:01","1550000","0","713143862","476229","2681","0","","0"
"2020-11-30 00:02:01","1560000","10000","713652143","508281","2681","0","","0"
"2020-12-01 00:02:01","1560000","0","714140334","488191","2681","0","","0"
"2020-12-02 00:02:02","1560000","0","714659819","519485","2681","0","","0"
"2020-12-03 00:02:01","1560000","0","715229880","570061","2681","0","","0"
"2020-12-04 00:02:01","1560000","0","715815313","585433","2681","0","","0"
"2020-12-05 00:02:03","1560000","0","716363062","547749","2678","-3","","0"
"2020-12-06 00:02:02","1560000","0","716706631","343569","2678","0","","0"
"2020-12-07 00:02:01","1560000","0","717518874","812243","2680","2","","0"
"2020-12-08 00:02:01","1560000","0","718132148","613274","2681","1","","0"
"2020-12-09 00:02:01","1560000","0","718762291","630143","2681","0","","0"
"2020-12-10 00:02:01","1560000","0","719334920","572629","2681","0","","0"
"2020-12-11 00:02:01","1560000","0","719833122","498202","2681","0","","0"
"2020-12-12 00:02:02","1560000","0","720275697","442575","2681","0","","0"
"2020-12-13 00:02:01","1560000","0","720822621","546924","2682","1","","0"
"2020-12-14 00:02:02","1570000","10000","721316539","493918","2682","0","","0"
"2020-12-15 00:02:02","1570000","0","721780274","463735","2682","0","","0"
"2020-12-16 00:02:01","1570000","0","722194452","414178","2682","0","","0"
"2020-12-17 00:02:02","1570000","0","722585314","390862","2682","0","","0"
"2020-12-18 00:02:02","1570000","0","723061512","476198","2683","1","","0"
"2020-12-19 00:02:02","1570000","0","723570328","508816","2683","0","","0"
"2020-12-20 00:02:02","1570000","0","724209593","639265","2683","0","","0"
"2020-12-21 00:02:02","1570000","0","724938598","729005","2683","0","","0"
"2020-12-22 00:02:01","1570000","0","725658143","719545","2683","0","","0"
"2020-12-23 00:02:01","1570000","0","726364372","706229","2683","0","","0"
"2020-12-24 00:02:02","1570000","0","727076117","711745","2683","0","","0"
"2020-12-25 00:02:02","1570000","0","727860906","784789","2685","2","","0"
"2020-12-26 00:02:02","1580000","10000","728541861","680955","2685","0","","0"
"2020-12-27 00:02:01","1580000","0","729159054","617193","2685","0","","0"
"2020-12-28 00:02:02","1580000","0","729820344","661290","2684","-1","","0"
"2020-12-29 00:02:01","1580000","0","668234305","-61586039","2683","-1","","0"
"2020-12-30 00:02:01","1580000","0","731207963","62973658","2685","2","","0"
"2020-12-31 00:02:01","1580000","0","732004282","796319","2684","-1","","0"
"2021-01-01 00:02:02","1580000","0","732728286","724004","2687","3","","0"
"2021-01-02 00:02:02","1580000","0","733467000","738714","2687","0","","0"
"2021-01-03 00:02:02","1580000","0","734203617","736617","2687","0","","0"
"2021-01-04 00:02:02","1590000","10000","735002545","798928","2687","0","","0"
"2021-01-05 00:02:03","1590000","0","735717047","714502","2687","0","","0"
"2021-01-06 00:02:01","1590000","0","736309897","592850","2687","0","","0"
"2021-01-07 00:02:01","1590000","0","736866961","557064","2687","0","","0"
"2021-01-08 00:02:01","1590000","0","737474884","607923","2687","0","","0"
"2021-01-09 00:02:01","1590000","0","738092124","617240","2687","0","","0"
"2021-01-10 00:02:01","1590000","0","738727210","635086","2687","0","","0"
"2021-01-11 00:02:01","1590000","0","739407477","680267","2687","0","","0"
"2021-01-12 00:02:02","1590000","0","740113464","705987","2687","0","","0"
"2021-01-13 00:02:01","1590000","0","740908465","795001","2687","0","","0"
"2021-01-14 00:02:01","1590000","0","741828916","920451","2686","-1","","0"
"2021-01-15 00:02:02","1600000","10000","742826268","997352","2688","2","","0"
"2021-01-16 00:02:02","1600000","0","743792726","966458","2688","0","","0"
"2021-01-17 00:02:01","1600000","0","744586283","793557","2688","0","","0"
"2021-01-18 00:02:02","1600000","0","745509685","923402","2688","0","","0"
"2021-01-19 00:02:01","1600000","0","746098357","588672","2688","0","","0"
"2021-01-20 00:02:01","1600000","0","746735840","637483","2688","0","","0"
"2021-01-21 00:02:02","1600000","0","747411372","675532","2688","0","","0"
"2021-01-22 00:02:01","1610000","10000","748082720","671348","2688","0","","0"
"2021-01-23 00:02:02","1610000","0","749024404","941684","2689","1","","0"
"2021-01-24 00:02:01","1610000","0","749863542","839138","2689","0","","0"
"2021-01-25 00:02:01","1610000","0","750751988","888446","2689","0","","0"
"2021-01-26 00:02:01","1610000","0","751447282","695294","2689","0","","0"
"2021-01-27 00:02:02","1610000","0","752153074","705792","2689","0","","0"
"2021-01-28 00:02:01","1610000","0","752810194","657120","2690","1","","0"
"2021-01-29 00:02:02","1610000","0","753616603","806409","2690","0","","0"
"2021-01-30 00:02:01","1620000","10000","754500326","883723","2691","1","","0"
"2021-01-31 00:02:01","1620000","0","755332295","831969","2691","0","","0"
"2021-02-01 00:02:02","1620000","0","756220528","888233","2691","0","","0"
"2021-02-02 00:02:01","1620000","0","757102711","882183","2691","0","","0"
"2021-02-03 00:02:02","1620000","0","757801895","699184","2691","0","","0"
"2021-02-04 00:02:01","1620000","0","758659949","858054","2691","0","","0"
"2021-02-05 00:02:01","1630000","10000","759321868","661919","2691","0","","0"
"2021-02-06 00:02:02","1630000","0","760019332","697464","2692","1","","0"
"2021-02-07 00:02:01","1630000","0","760836204","816872","2692","0","","0"
"2021-02-08 00:02:02","1630000","0","761770014","933810","2692","0","","0"
"2021-02-09 00:02:01","1630000","0","762514406","744392","2692","0","","0"
"2021-02-10 00:02:02","1630000","0","763312883","798477","2692","0","","0"
"2021-02-11 00:02:01","1630000","0","763958213","645330","2692","0","","0"
"2021-02-12 00:02:01","1630000","0","764613479","655266","2692","0","","0"
"2021-02-13 00:02:01","1640000","10000","765302325","688846","2692","0","","0"
"2021-02-14 00:02:02","1640000","0","766051534","749209","2692","0","","0"
"2021-02-15 00:02:01","1640000","0","767152532","1100998","2692","0","","0"
"2021-02-16 00:02:01","1640000","0","768336385","1183853","2692","0","","0"
"2021-02-17 00:02:01","1640000","0","769473678","1137293","2692","0","","0"
"2021-02-18 00:02:01","1650000","10000","770809423","1335745","2692","0","","0"
"2021-02-19 00:02:01","1650000","0","772062968","1253545","2692","0","","0"
"2021-02-20 00:02:02","1650000","0","772753057","690089","2693","1","","0"
"2021-02-21 00:02:01","1650000","0","773395007","641950","2693","0","","0"
"2021-02-22 00:02:01","1650000","0","774078335","683328","2693","0","","0"
"2021-02-23 00:02:01","1650000","0","774964542","886207","2693","0","","0"
"2021-02-24 00:02:01","1650000","0","775518072","553530","2693","0","","0"
"2021-02-25 00:02:01","1660000","10000","776174706","656634","2693","0","","0"
"2021-02-26 00:02:01","1660000","0","776955751","781045","2693","0","","0"
"2021-02-27 00:02:01","1660000","0","778160620","1204869","2694","1","","0"
"2021-02-28 00:02:01","1660000","0","779580619","1419999","2694","0","","0"
"2021-03-01 00:02:01","1660000","0","780922526","1341907","2694","0","","0"
"2021-03-02 00:02:02","1670000","10000","781914909","992383","2694","0","","0"
"2021-03-03 00:02:01","1670000","0","782875206","960297","2694","0","","0"
"2021-03-04 00:02:01","1670000","0","784256473","1381267","2694","0","","0"
"2021-03-05 00:02:01","1670000","0","784583392","326919","2694","0","","0"
"2021-03-06 00:02:01","1680000","10000","785907093","1323701","2694","0","","0"
"2021-03-07 00:02:01","1680000","0","787203954","1296861","2694","0","","0"
"2021-03-08 00:02:01","1680000","0","788488265","1284311","2694","0","","0"
"2021-03-09 00:02:01","1680000","0","789761878","1273613","2694","0","","0"
"2021-03-10 00:02:01","1680000","0","790891971","1130093","2694","0","","0"
"2021-03-11 00:02:01","1690000","10000","791815223","923252","2694","0","","0"
"2021-03-12 00:02:01","1690000","0","792521191","705968","2694","0","","0"
"2021-03-13 00:02:01","1690000","0","793281745","760554","2694","0","","0"
"2021-03-14 00:02:02","1690000","0","793825278","543533","2694","0","","0"
"2021-03-15 00:02:01","1690000","0","794351977","526699","2694","0","","0"
"2021-03-16 00:02:00","1690000","0","794828556","476579","2694","0","","0"
"2021-03-17 00:02:01","1690000","0","795283717","455161","2694","0","","0"
"2021-03-18 00:02:01","1690000","0","795639058","355341","2694","0","","0"
"2021-03-19 00:02:01","1690000","0","796183639","544581","2694","0","","0"
"2021-03-20 00:02:01","1690000","0","796593966","410327","2694","0","","0"
"2021-03-21 00:02:01","1690000","0","797101843","507877","2694","0","","0"
"2021-03-22 00:02:01","1690000","0","797486458","384615","2694","0","","0"
"2021-03-23 00:02:02","1700000","10000","797955875","469417","2694","0","","0"
"2021-03-24 00:02:01","1700000","0","798432796","476921","2694","0","","0"
"2021-03-25 00:02:00","1700000","0","799232715","799919","2694","0","","0"
"2021-03-26 00:02:01","1700000","0","799908878","676163","2694","0","","0"
"2021-03-27 00:02:01","1700000","0","800319927","411049","2695","1","","0"
"2021-03-28 00:02:02","1700000","0","800807759","487832","2695","0","","0"
"2021-03-29 00:02:01","1700000","0","801196265","388506","2695","0","","0"
"2021-03-30 00:02:01","1700000","0","801625113","428848","2695","0","","0"
"2021-03-31 00:02:01","1700000","0","802104685","479572","2695","0","","0"
"2021-04-01 00:02:01","1700000","0","802602311","497626","2695","0","","0"
"2021-04-02 00:02:01","1700000","0","803199509","597198","2695","0","","0"
"2021-04-03 00:02:01","1700000","0","803754101","554592","2696","1","","0"
"2021-04-04 00:02:01","1710000","10000","804327099","572998","2696","0","","0"
"2021-04-05 00:02:01","1710000","0","805002823","675724","2696","0","","0"
"2021-04-06 00:02:01","1710000","0","805581538","578715","2696","0","","0"
"2021-04-07 00:02:01","1710000","0","806206697","625159","2696","0","","0"
"2021-04-08 00:02:02","1710000","0","806634672","427975","2696","0","","0"
"2021-04-09 00:02:01","1710000","0","807018334","383662","2696","0","","0"
"2021-04-10 00:02:01","1710000","0","807427050","408716","2696","0","","0"
"2021-04-11 00:02:02","1710000","0","807859843","432793","2696","0","","0"
"2021-04-12 00:02:01","1710000","0","808314193","454350","2696","0","","0"
"2021-04-13 00:02:02","1710000","0","808580872","266679","2696","0","","0"
"2021-04-14 00:02:02","1710000","0","809166017","585145","2696","0","","0"
"2021-04-15 00:02:01","1710000","0","809575976","409959","2697","1","","0"
"2021-04-16 00:02:02","1710000","0","809958152","382176","2697","0","","0"
"2021-04-17 00:02:02","1710000","0","810303035","344883","2697","0","","0"
"2021-04-18 00:02:02","1710000","0","810641126","338091","2697","0","","0"
"2021-04-19 00:02:02","1710000","0","810814643","173517","2697","0","","0"
"2021-04-20 00:02:01","1710000","0","811076582","261939","2697","0","","0"
"2021-04-21 00:02:01","1710000","0","811326688","250106","2697","0","","0"
"2021-04-22 00:02:01","1710000","0","811678549","351861","2697","0","","0"
"2021-04-23 00:02:02","1720000","10000","812013032","334483","2697","0","","0"
"2021-04-24 00:02:02","1720000","0","812455291","442259","2697","0","","0"
"2021-04-25 00:02:02","1720000","0","813023966","568675","2697","0","","0"
"2021-04-26 00:02:02","1720000","0","813448197","424231","2697","0","","0"
"2021-04-27 00:02:01","1720000","0","813957442","509245","2697","0","","0"
"2021-04-28 00:02:01","1720000","0","814485570","528128","2697","0","","0"
"2021-04-29 00:02:02","1720000","0","814906862","421292","2697","0","","0"
"2021-04-30 00:02:01","1720000","0","815502444","595582","2697","0","","0"
"2021-05-01 00:02:02","1720000","0","816060610","558166","2697","0","","0"
"2021-05-02 00:02:01","1720000","0","816584975","524365","2697","0","","0"
"2021-05-03 00:02:02","1720000","0","817007555","422580","2697","0","","0"
"2021-05-04 00:02:02","1720000","0","817298626","291071","2697","0","","0"
"2021-05-05 00:02:02","1720000","0","817645897","347271","2698","1","","0"
"2021-05-06 00:02:01","1720000","0","818051232","405335","2698","0","","0"
"2021-05-07 00:02:02","1720000","0","818359434","308202","2698","0","","0"
"2021-05-08 00:02:02","1720000","0","818613592","254158","2698","0","","0"
"2021-05-09 00:02:01","1720000","0","818852175","238583","2698","0","","0"
"2021-05-10 00:02:02","1720000","0","819052352","200177","2698","0","","0"
"2021-05-11 00:02:01","1730000","10000","819262710","210358","2698","0","","0"
"2021-05-12 00:02:02","1730000","0","819447199","184489","2698","0","","0"
"2021-05-13 00:02:01","1730000","0","819664758","217559","2698","0","","0"
"2021-05-14 00:02:02","1730000","0","819851012","186254","2699","1","","0"
"2021-05-15 00:02:02","1730000","0","820033974","182962","2699","0","","0"
"2021-05-16 00:02:02","1730000","0","820233378","199404","2699","0","","0"
"2021-05-17 00:02:01","1730000","0","820414482","181104","2699","0","","0"
"2021-05-18 00:02:02","1730000","0","820633642","219160","2699","0","","0"
"2021-05-19 00:02:01","1730000","0","820873103","239461","2699","0","","0"
"2021-05-20 00:02:01","1730000","0","821111666","238563","2699","0","","0"
"2021-05-21 00:02:01","1730000","0","821309860","198194","2699","0","","0"
"2021-05-22 00:02:01","1730000","0","821491151","181291","2699","0","","0"
"2021-05-23 00:02:02","1730000","0","821717561","226410","2699","0","","0"
"2021-05-24 00:02:02","1730000","0","821971534","253973","2699","0","","0"
"2021-05-25 00:02:02","1730000","0","822139265","167731","2699","0","","0"
"2021-05-26 00:02:01","1730000","0","822452240","312975","2699","0","","0"
"2021-05-27 00:02:01","1730000","0","822644301","192061","2699","0","","0"
"2021-05-28 00:02:02","1730000","0","822797772","153471","2700","1","","0"
"2021-05-29 00:02:02","1730000","0","822947228","149456","2700","0","","0"
"2021-05-30 00:02:02","1730000","0","823115517","168289","2700","0","","0"
"2021-05-31 00:02:01","1730000","0","823282428","166911","2700","0","","0"
"2021-06-01 00:02:02","1730000","0","823355849","73421","2700","0","","0"
"2021-06-02 00:02:01","1730000","0","823589358","233509","2700","0","","0"
"2021-06-03 00:02:01","1730000","0","823718637","129279","2700","0","","0"
"2021-06-04 00:02:02","1730000","0","823864277","145640","2700","0","","0"
"2021-06-05 00:02:01","1730000","0","823980743","116466","2700","0","","0"
"2021-06-06 00:02:01","1730000","0","824089173","108430","2700","0","","0"
"2021-06-07 00:02:01","1730000","0","824195965","106792","2701","1","","0"
"2021-06-08 00:02:01","1730000","0","824307278","111313","2701","0","","0"
"2021-06-09 00:02:00","1730000","0","824410099","102821","2701","0","","0"
"2021-06-10 00:02:01","1730000","0","824524590","114491","2701","0","","0"
"2021-06-11 00:02:02","1730000","0","824625234","100644","2701","0","","0"
"2021-06-12 00:02:02","1730000","0","824725930","100696","2701","0","","0"
"2021-06-13 00:02:02","1730000","0","824840664","114734","2701","0","","0"
"2021-06-14 00:02:01","1730000","0","824968438","127774","2701","0","","0"
"2021-06-15 00:02:01","1730000","0","825113101","144663","2701","0","","0"
"2021-06-16 00:02:01","1730000","0","825231661","118560","2701","0","","0"
"2021-06-17 00:02:01","1730000","0","825340276","108615","2702","1","","0"
"2021-06-18 00:02:01","1730000","0","825492569","152293","2702","0","","0"
"2021-06-19 00:02:01","1730000","0","825666106","173537","2702","0","","0"
"2021-06-20 00:02:01","1730000","0","825800960","134854","2702","0","","0"
"2021-06-21 00:02:01","1730000","0","825948210","147250","2702","0","","0"
"2021-06-22 00:02:01","1730000","0","826080717","132507","2702","0","","0"
"2021-06-23 00:02:02","1730000","0","826199386","118669","2702","0","","0"
"2021-06-24 00:02:01","1730000","0","826335881","136495","2702","0","","0"
"2021-06-25 00:02:01","1730000","0","826492489","156608","2702","0","","0"
"2021-06-26 00:02:02","1730000","0","826618995","126506","2702","0","","0"
"2021-06-27 00:02:02","1730000","0","826738825","119830","2702","0","","0"
"2021-06-28 00:02:01","1730000","0","826869418","130593","2702","0","","0"
"2021-06-29 00:02:02","1730000","0","826986828","117410","2702","0","","0"
"2021-06-30 00:02:01","1730000","0","827069299","82471","2702","0","","0"
"2021-07-01 00:02:02","1730000","0","827261671","192372","2703","1","","0"
"2021-07-02 00:02:01","1730000","0","827399531","137860","2703","0","","0"
"2021-07-03 00:02:02","1730000","0","827536752","137221","2703","0","","0"
"2021-07-04 00:02:01","1730000","0","827678611","141859","2703","0","","0"
"2021-07-05 00:02:02","1730000","0","827797540","118929","2703","0","","0"
"2021-07-06 00:02:02","1730000","0","827878145","80605","2703","0","","0"
"2021-07-07 00:02:01","1730000","0","828012258","134113","2703","0","","0"
"2021-07-08 00:02:02","1730000","0","828118217","105959","2703","0","","0"
"2021-07-09 00:02:02","1730000","0","828229765","111548","2703","0","","0"
"2021-07-10 00:02:01","1730000","0","828352096","122331","2702","-1","","0"
"2021-07-11 00:02:02","1730000","0","828465914","113818","2702","0","","0"
"2021-07-12 00:02:01","1730000","0","825221272","-3244642","2702","0","","0"
"2021-07-13 00:02:01","1730000","0","825370614","149342","2703","1","","0"
"2021-07-14 00:02:02","1730000","0","829020829","3650215","2703","0","","0"
"2021-07-15 00:02:02","1730000","0","829187633","166804","2703","0","","0"
"2021-07-16 00:02:02","1730000","0","829360193","172560","2703","0","","0"
"2021-07-17 00:02:01","1730000","0","829567773","207580","2704","1","","0"
"2021-07-18 00:02:00","1730000","0","829774177","206404","2704","0","","0"
"2021-07-19 00:02:02","1730000","0","829969838","195661","2704","0","","0"
"2021-07-20 00:02:02","1730000","0","830293064","323226","2704","0","","0"
"2021-07-21 00:02:01","1730000","0","830697190","404126","2704","0","","0"
"2021-07-22 00:02:01","1730000","0","831138899","441709","2704","0","","0"
"2021-07-23 00:02:01","1730000","0","831513726","374827","2705","1","","0"
"2021-07-24 00:02:00","1730000","0","831786308","272582","2706","1","","0"
"2021-07-25 00:02:01","1740000","10000","832017245","230937","2707","1","","0"
"2021-07-26 00:02:01","1740000","0","832368241","350996","2708","1","","0"
"2021-07-27 00:02:01","1740000","0","832753209","384968","2709","1","","0"
"2021-07-28 00:02:02","1740000","0","833078243","325034","2709","0","","0"
"2021-07-29 00:02:01","1740000","0","833422484","344241","2710","1","","0"
"2021-07-30 00:02:01","1740000","0","833719717","297233","2710","0","","0"
"2021-07-31 00:02:02","1740000","0","834065442","345725","2711","1","","0"
"2021-08-01 00:02:01","1740000","0","834429028","363586","2711","0","","0"
"2021-08-02 00:02:01","1740000","0","834735192","306164","2711","0","","0"
"2021-08-03 00:02:01","1740000","0","835059380","324188","2712","1","","0"
"2021-08-04 00:02:01","1740000","0","835489668","430288","2712","0","","0"
"2021-08-05 00:02:01","1740000","0","835878372","388704","2712","0","","0"
"2021-08-06 00:02:01","1740000","0","836257868","379496","2713","1","","0"
"2021-08-07 00:02:01","1740000","0","836519336","261468","2713","0","","0"
"2021-08-08 00:02:01","1740000","0","837032580","513244","2713","0","","0"
"2021-08-09 00:02:01","1740000","0","837348545","315965","2714","1","","0"
"2021-08-10 00:02:02","1750000","10000","837733654","385109","2714","0","","0"
"2021-08-11 00:02:01","1750000","0","837733654","0","2715","1","","0"
"2021-08-12 00:02:01","1750000","0","838440418","706764","2715","0","","0"
"2021-08-13 00:02:01","1750000","0","838866782","426364","2715","0","","0"
"2021-08-14 00:02:02","1750000","0","839333263","466481","2715","0","","0"
"2021-08-15 00:02:02","1750000","0","839851387","518124","2716","1","","0"
"2021-08-16 00:02:02","1750000","0","840308707","457320","2716","0","","0"
"2021-08-17 00:02:02","1750000","0","840424466","115759","2717","1","","0"
"2021-08-18 00:02:01","1750000","0","841155269","730803","2717","0","","0"
"2021-08-19 00:02:01","1750000","0","841543505","388236","2717","0","","0"
"2021-08-20 00:02:01","1750000","0","841942664","399159","2717","0","","0"
"2021-08-21 00:02:01","1750000","0","842270665","328001","2718","1","","0"
"2021-08-22 00:02:01","1750000","0","842602020","331355","2718","0","","0"
"2021-08-23 00:02:01","1750000","0","842932316","330296","2718","0","","0"
"2021-08-24 00:02:02","1750000","0","843170388","238072","2718","0","","0"
"2021-08-25 00:02:01","1750000","0","843425921","255533","2719","1","","0"
"2021-08-26 00:02:02","1760000","10000","843640217","214296","2719","0","","0"